Time,TemperatureF,DewpointF,PressureIn,WindDirection,WindDirectionDegrees,WindSpeedMPH,WindSpeedGustMPH,Humidity,HourlyPrecipIn,Conditions,Clouds,dailyrainin,SoftwareType,DateUTC
2013-03-14 00:12:00,40.0,22.0,30.11,NNE,13,4.0,15.0,49,0.00,,,0.00,,2013-03-14 04:12:00,
2013-03-14 00:22:00,39.0,21.0,30.12,North,352,10.0,17.0,48,0.00,,,0.00,,2013-03-14 04:22:00,
2013-03-14 00:32:00,39.0,21.0,30.12,NW,305,11.0,18.0,49,0.00,,,0.00,,2013-03-14 04:32:00,
2013-03-14 00:42:00,39.0,21.0,30.12,NW,305,11.0,18.0,49,0.00,,,0.00,,2013-03-14 04:42:00,
2013-03-14 00:53:00,38.0,21.0,30.13,West,278,7.0,15.0,49,0.00,,,0.00,,2013-03-14 04:53:00,
2013-03-14 01:02:00,37.0,20.0,30.13,NW,319,5.0,11.0,49,0.00,,,0.00,,2013-03-14 05:02:00,
2013-03-14 01:12:00,37.0,20.0,30.13,NW,319,5.0,11.0,49,0.00,,,0.00,,2013-03-14 05:12:00,
2013-03-14 01:22:00,37.0,20.0,30.14,NW,324,6.0,10.0,50,0.00,,,0.00,,2013-03-14 05:22:00,
2013-03-14 01:33:00,37.0,20.0,30.14,NNW,332,5.0,12.0,50,0.00,,,0.00,,2013-03-14 05:33:00,
2013-03-14 01:42:00,37.0,20.0,30.14,NNW,332,5.0,12.0,50,0.00,,,0.00,,2013-03-14 05:42:00,
2013-03-14 01:53:00,36.0,19.0,30.14,North,5,5.0,12.0,49,0.00,,,0.00,,2013-03-14 05:53:00,
2013-03-14 02:02:00,36.0,19.0,30.14,NNW,342,5.0,13.0,50,0.00,,,0.00,,2013-03-14 06:02:00,
2013-03-14 02:12:00,36.0,19.0,30.14,NNW,342,5.0,13.0,50,0.00,,,0.00,,2013-03-14 06:12:00,
2013-03-14 02:22:00,36.0,19.0,30.15,NNW,347,7.0,11.0,50,0.00,,,0.00,,2013-03-14 06:22:00,
2013-03-14 02:33:00,36.0,19.0,30.15,NNW,335,4.0,12.0,50,0.00,,,0.00,,2013-03-14 06:33:00,
2013-03-14 02:42:00,36.0,19.0,30.15,NNW,335,4.0,12.0,50,0.00,,,0.00,,2013-03-14 06:42:00,
2013-03-14 02:52:00,35.0,19.0,30.15,NW,323,4.0,14.0,51,0.00,,,0.00,,2013-03-14 06:52:00,
2013-03-14 03:02:00,35.0,19.0,30.15,NW,326,8.0,19.0,51,0.00,,,0.00,,2013-03-14 07:02:00,
2013-03-14 03:12:00,35.0,19.0,30.15,NW,326,8.0,19.0,51,0.00,,,0.00,,2013-03-14 07:12:00,
2013-03-14 03:22:00,35.0,19.0,30.15,NW,309,5.0,11.0,52,0.00,,,0.00,,2013-03-14 07:22:00,
2013-03-14 03:32:00,34.0,19.0,30.16,NNW,330,2.0,9.0,53,0.00,,,0.00,,2013-03-14 07:32:00,
2013-03-14 03:43:00,34.0,19.0,30.16,NNW,330,2.0,9.0,53,0.00,,,0.00,,2013-03-14 07:43:00,
2013-03-14 03:52:00,34.0,19.0,30.16,NNW,330,2.0,9.0,53,0.00,,,0.00,,2013-03-14 07:52:00,
2013-03-14 04:02:00,34.0,19.0,30.16,NNW,330,2.0,9.0,53,0.00,,,0.00,,2013-03-14 08:02:00,
2013-03-14 04:12:00,34.0,19.0,30.16,NNW,330,2.0,9.0,53,0.00,,,0.00,,2013-03-14 08:12:00,
2013-03-14 05:52:00,33.0,19.0,30.16,NW,315,4.0,7.0,55,0.00,,,0.00,,2013-03-14 09:52:00,
2013-03-14 06:02:00,33.0,19.0,30.16,NW,316,3.0,9.0,55,0.00,,,0.00,,2013-03-14 10:02:00,
2013-03-14 06:12:00,33.0,19.0,30.16,NW,316,3.0,9.0,55,0.00,,,0.00,,2013-03-14 10:12:00,
2013-03-14 06:22:00,32.0,19.0,30.17,WNW,302,2.0,5.0,57,0.00,,,0.00,,2013-03-14 10:22:00,
2013-03-14 06:32:00,32.0,19.0,30.18,NW,304,0.0,4.0,58,0.00,,,0.00,,2013-03-14 10:32:00,
2013-03-14 06:42:00,32.0,19.0,30.18,NW,304,0.0,4.0,58,0.00,,,0.00,,2013-03-14 10:42:00,
2013-03-14 06:52:00,31.0,19.0,30.19,WNW,288,1.0,4.0,61,0.00,,,0.00,,2013-03-14 10:52:00,
2013-03-14 07:02:00,31.0,19.0,30.19,NW,314,2.0,4.0,61,0.00,,,0.00,,2013-03-14 11:02:00,
2013-03-14 07:12:00,31.0,19.0,30.19,NW,314,2.0,4.0,61,0.00,,,0.00,,2013-03-14 11:12:00,
2013-03-14 07:22:00,31.0,20.0,30.19,WNW,297,2.0,4.0,62,0.00,,,0.00,,2013-03-14 11:22:00,
2013-03-14 07:33:00,30.0,19.0,30.19,NW,304,0.0,2.0,64,0.00,,,0.00,,2013-03-14 11:33:00,
2013-03-14 07:42:00,30.0,19.0,30.19,NW,304,0.0,2.0,64,0.00,,,0.00,,2013-03-14 11:42:00,
2013-03-14 07:53:00,30.0,20.0,30.20,West,277,1.0,2.0,65,0.00,,,0.00,,2013-03-14 11:53:00,
2013-03-14 08:02:00,31.0,20.0,30.21,WNW,297,1.0,5.0,64,0.00,,,0.00,,2013-03-14 12:02:00,
2013-03-14 08:12:00,31.0,20.0,30.21,WNW,297,1.0,5.0,64,0.00,,,0.00,,2013-03-14 12:12:00,
2013-03-14 08:22:00,31.0,20.0,30.21,WNW,301,2.0,5.0,63,0.00,,,0.00,,2013-03-14 12:22:00,
2013-03-14 08:33:00,33.0,21.0,30.22,WNW,283,3.0,6.0,61,0.00,,,0.00,,2013-03-14 12:33:00,
2013-03-14 08:42:00,33.0,21.0,30.22,WNW,283,3.0,6.0,61,0.00,,,0.00,,2013-03-14 12:42:00,
2013-03-14 08:52:00,34.0,21.0,30.22,NNW,340,3.0,6.0,59,0.00,,,0.00,,2013-03-14 12:52:00,
2013-03-14 09:02:00,34.0,21.0,30.22,NW,308,2.0,8.0,58,0.00,,,0.00,,2013-03-14 13:02:00,
2013-03-14 09:12:00,34.0,21.0,30.22,NW,308,2.0,8.0,58,0.00,,,0.00,,2013-03-14 13:12:00,
2013-03-14 09:22:00,35.0,20.0,30.22,North,352,6.0,11.0,54,0.00,,,0.00,,2013-03-14 13:22:00,
2013-03-14 09:32:00,36.0,21.0,30.22,North,356,5.0,10.0,53,0.00,,,0.00,,2013-03-14 13:32:00,
2013-03-14 09:42:00,36.0,21.0,30.22,North,356,5.0,10.0,53,0.00,,,0.00,,2013-03-14 13:42:00,
2013-03-14 09:52:00,37.0,21.0,30.22,NNW,336,6.0,11.0,52,0.00,,,0.00,,2013-03-14 13:52:00,
2013-03-14 10:02:00,38.0,22.0,30.22,WNW,293,5.0,12.0,51,0.00,,,0.00,,2013-03-14 14:02:00,
2013-03-14 10:12:00,38.0,22.0,30.22,WNW,293,5.0,12.0,51,0.00,,,0.00,,2013-03-14 14:12:00,
2013-03-14 10:22:00,38.0,21.0,30.23,NW,325,6.0,13.0,49,0.00,,,0.00,,2013-03-14 14:22:00,
2013-03-14 10:32:00,39.0,20.0,30.23,NW,311,7.0,14.0,47,0.00,,,0.00,,2013-03-14 14:32:00,
2013-03-14 10:42:00,39.0,20.0,30.23,NW,311,7.0,14.0,47,0.00,,,0.00,,2013-03-14 14:42:00,
2013-03-14 10:53:00,40.0,20.0,30.23,NW,319,7.0,14.0,45,0.00,,,0.00,,2013-03-14 14:53:00,
2013-03-14 11:02:00,41.0,22.0,30.23,NW,323,6.0,12.0,46,0.00,,,0.00,,2013-03-14 15:02:00,
2013-03-14 11:12:00,41.0,22.0,30.23,NW,323,6.0,12.0,46,0.00,,,0.00,,2013-03-14 15:12:00,
2013-03-14 11:22:00,41.0,21.0,30.23,WNW,302,5.0,14.0,44,0.00,,,0.00,,2013-03-14 15:22:00,
2013-03-14 11:33:00,42.0,21.0,30.23,NNW,338,8.0,13.0,42,0.00,,,0.00,,2013-03-14 15:33:00,
2013-03-14 11:43:00,42.0,21.0,30.23,NNW,338,8.0,13.0,42,0.00,,,0.00,,2013-03-14 15:43:00,
2013-03-14 11:52:00,42.0,20.0,30.23,NNW,345,7.0,13.0,41,0.00,,,0.00,,2013-03-14 15:52:00,
2013-03-14 12:03:00,43.0,20.0,30.22,NW,319,6.0,12.0,40,0.00,,,0.00,,2013-03-14 16:03:00,
2013-03-14 12:13:00,43.0,20.0,30.22,NW,319,6.0,12.0,40,0.00,,,0.00,,2013-03-14 16:13:00,
2013-03-14 12:23:00,44.0,21.0,30.22,WNW,285,9.0,14.0,39,0.00,,,0.00,,2013-03-14 16:23:00,
2013-03-14 12:32:00,44.0,20.0,30.21,NNE,12,8.0,13.0,38,0.00,,,0.00,,2013-03-14 16:32:00,
2013-03-14 12:42:00,44.0,20.0,30.21,NNE,12,8.0,13.0,38,0.00,,,0.00,,2013-03-14 16:42:00,
2013-03-14 12:52:00,45.0,22.0,30.21,NNE,32,8.0,12.0,39,0.00,,,0.00,,2013-03-14 16:52:00,
2013-03-14 13:02:00,46.0,24.0,30.20,NNW,330,4.0,10.0,41,0.00,,,0.00,,2013-03-14 17:02:00,
2013-03-14 13:13:00,46.0,24.0,30.20,NNW,330,4.0,10.0,41,0.00,,,0.00,,2013-03-14 17:13:00,
2013-03-14 13:23:00,46.0,22.0,30.20,West,266,5.0,10.0,38,0.00,,,0.00,,2013-03-14 17:23:00,
2013-03-14 13:33:00,47.0,21.0,30.19,NW,304,5.0,13.0,36,0.00,,,0.00,,2013-03-14 17:33:00,
2013-03-14 13:42:00,47.0,21.0,30.19,NW,304,5.0,13.0,36,0.00,,,0.00,,2013-03-14 17:42:00,
2013-03-14 13:53:00,48.0,22.0,30.18,West,277,5.0,10.0,36,0.00,,,0.00,,2013-03-14 17:53:00,
2013-03-14 14:03:00,48.0,23.0,30.18,West,260,5.0,11.0,37,0.00,,,0.00,,2013-03-14 18:03:00,
2013-03-14 14:12:00,48.0,23.0,30.18,West,260,5.0,11.0,37,0.00,,,0.00,,2013-03-14 18:12:00,
2013-03-14 14:23:00,49.0,23.0,30.17,ENE,65,5.0,12.0,36,0.00,,,0.00,,2013-03-14 18:23:00,
2013-03-14 14:33:00,49.0,22.0,30.17,SW,216,5.0,14.0,34,0.00,,,0.00,,2013-03-14 18:33:00,
2013-03-14 14:43:00,49.0,22.0,30.17,SW,216,5.0,14.0,34,0.00,,,0.00,,2013-03-14 18:43:00,
2013-03-14 14:53:00,49.0,22.0,30.16,WNW,282,8.0,12.0,34,0.00,,,0.00,,2013-03-14 18:53:00,
2013-03-14 15:03:00,49.0,22.0,30.15,West,267,8.0,13.0,34,0.00,,,0.00,,2013-03-14 19:03:00,
2013-03-14 15:12:00,49.0,22.0,30.15,West,267,8.0,13.0,34,0.00,,,0.00,,2013-03-14 19:12:00,
2013-03-14 15:23:00,50.0,22.0,30.14,West,281,7.0,15.0,33,0.00,,,0.00,,2013-03-14 19:23:00,
2013-03-14 15:32:00,50.0,21.0,30.14,WNW,290,6.0,16.0,32,0.00,,,0.00,,2013-03-14 19:32:00,
2013-03-14 15:42:00,50.0,21.0,30.14,WNW,290,6.0,16.0,32,0.00,,,0.00,,2013-03-14 19:42:00,
2013-03-14 15:52:00,51.0,22.0,30.13,WNW,298,6.0,12.0,32,0.00,,,0.00,,2013-03-14 19:52:00,
2013-03-14 16:02:00,52.0,23.0,30.13,NNW,348,6.0,12.0,32,0.00,,,0.00,,2013-03-14 20:02:00,
2013-03-14 16:12:00,52.0,23.0,30.13,NNW,348,6.0,12.0,32,0.00,,,0.00,,2013-03-14 20:12:00,
2013-03-14 16:22:00,52.0,22.0,30.13,North,360,7.0,16.0,30,0.00,,,0.00,,2013-03-14 20:22:00,
2013-03-14 16:32:00,53.0,22.0,30.12,WNW,283,5.0,11.0,30,0.00,,,0.00,,2013-03-14 20:32:00,
2013-03-14 16:42:00,53.0,22.0,30.12,WNW,283,5.0,11.0,30,0.00,,,0.00,,2013-03-14 20:42:00,
2013-03-14 16:52:00,53.0,22.0,30.11,WNW,301,7.0,13.0,29,0.00,,,0.00,,2013-03-14 20:52:00,
2013-03-14 17:03:00,53.0,22.0,30.11,NW,325,7.0,11.0,30,0.00,,,0.00,,2013-03-14 21:03:00,
2013-03-14 17:13:00,53.0,22.0,30.11,NW,325,7.0,11.0,30,0.00,,,0.00,,2013-03-14 21:13:00,
2013-03-14 17:22:00,53.0,22.0,30.11,WNW,301,8.0,13.0,29,0.00,,,0.00,,2013-03-14 21:22:00,
2013-03-14 17:33:00,54.0,22.0,30.10,NW,316,5.0,12.0,29,0.00,,,0.00,,2013-03-14 21:33:00,
2013-03-14 17:43:00,54.0,22.0,30.10,NW,316,5.0,12.0,29,0.00,,,0.00,,2013-03-14 21:43:00,
2013-03-14 17:53:00,53.0,21.0,30.10,NNW,338,6.0,12.0,28,0.00,,,0.00,,2013-03-14 21:53:00,
2013-03-14 18:03:00,53.0,22.0,30.10,WNW,298,4.0,13.0,29,0.00,,,0.00,,2013-03-14 22:03:00,
2013-03-14 18:13:00,53.0,22.0,30.10,WNW,298,4.0,13.0,29,0.00,,,0.00,,2013-03-14 22:13:00,
2013-03-14 18:23:00,53.0,21.0,30.10,WNW,285,5.0,10.0,28,0.00,,,0.00,,2013-03-14 22:23:00,
2013-03-14 18:33:00,53.0,21.0,30.10,WNW,284,5.0,12.0,28,0.00,,,0.00,,2013-03-14 22:33:00,
2013-03-14 18:42:00,53.0,21.0,30.10,WNW,284,5.0,12.0,28,0.00,,,0.00,,2013-03-14 22:42:00,
2013-03-14 18:53:00,53.0,22.0,30.10,WNW,300,3.0,7.0,29,0.00,,,0.00,,2013-03-14 22:53:00,
2013-03-14 19:03:00,52.0,21.0,30.10,NNW,336,3.0,10.0,29,0.00,,,0.00,,2013-03-14 23:03:00,
2013-03-14 19:12:00,52.0,21.0,30.10,NNW,336,3.0,10.0,29,0.00,,,0.00,,2013-03-14 23:12:00,
2013-03-14 19:23:00,50.0,21.0,30.11,NW,319,4.0,7.0,31,0.00,,,0.00,,2013-03-14 23:23:00,
2013-03-14 19:33:00,49.0,20.0,30.11,West,264,3.0,8.0,32,0.00,,,0.00,,2013-03-14 23:33:00,
2013-03-14 19:42:00,49.0,20.0,30.11,West,264,3.0,8.0,32,0.00,,,0.00,,2013-03-14 23:42:00,
2013-03-14 19:54:00,49.0,21.0,30.11,NW,316,3.0,8.0,33,0.00,,,0.00,,2013-03-14 23:54:00,
2013-03-14 20:02:00,48.0,20.0,30.12,NW,308,2.0,5.0,33,0.00,,,0.00,,2013-03-15 00:02:00,
2013-03-14 20:12:00,47.0,20.0,30.12,NW,305,1.0,4.0,34,0.00,,,0.00,,2013-03-15 00:12:00,
2013-03-14 20:23:00,47.0,20.0,30.12,NW,305,1.0,4.0,34,0.00,,,0.00,,2013-03-15 00:23:00,
2013-03-14 20:32:00,46.0,20.0,30.12,West,276,1.0,4.0,35,0.00,,,0.00,,2013-03-15 00:32:00,
2013-03-14 20:42:00,46.0,20.0,30.12,West,276,1.0,4.0,35,0.00,,,0.00,,2013-03-15 00:42:00,
2013-03-14 20:52:00,46.0,20.0,30.12,West,267,0.0,2.0,35,0.00,,,0.00,,2013-03-15 00:52:00,
2013-03-14 21:02:00,45.0,20.0,30.12,WNW,288,1.0,2.0,37,0.00,,,0.00,,2013-03-15 01:02:00,
2013-03-14 21:12:00,45.0,20.0,30.12,WNW,288,1.0,2.0,37,0.00,,,0.00,,2013-03-15 01:12:00,
2013-03-14 21:22:00,44.0,20.0,30.13,WNW,300,0.0,1.0,38,0.00,,,0.00,,2013-03-15 01:22:00,
2013-03-14 21:32:00,43.0,20.0,30.13,WNW,300,0.0,0.0,40,0.00,,,0.00,,2013-03-15 01:32:00,
2013-03-14 21:42:00,43.0,20.0,30.13,WNW,300,0.0,0.0,40,0.00,,,0.00,,2013-03-15 01:42:00,
2013-03-14 21:52:00,43.0,20.0,30.13,WNW,300,0.0,0.0,39,0.00,,,0.00,,2013-03-15 01:52:00,
2013-03-14 22:03:00,43.0,20.0,30.13,WNW,299,0.0,0.0,40,0.00,,,0.00,,2013-03-15 02:03:00,
2013-03-14 22:12:00,43.0,20.0,30.13,WNW,299,0.0,0.0,40,0.00,,,0.00,,2013-03-15 02:12:00,
2013-03-14 22:22:00,42.0,21.0,30.13,West,279,0.0,1.0,42,0.00,,,0.00,,2013-03-15 02:22:00,
2013-03-14 22:32:00,43.0,21.0,30.14,West,281,0.0,2.0,41,0.00,,,0.00,,2013-03-15 02:32:00,
2013-03-14 22:42:00,43.0,21.0,30.14,West,281,0.0,2.0,41,0.00,,,0.00,,2013-03-15 02:42:00,
2013-03-14 22:52:00,42.0,22.0,30.14,West,266,1.0,3.0,44,0.00,,,0.00,,2013-03-15 02:52:00,
2013-03-14 23:02:00,42.0,22.0,30.14,West,260,1.0,2.0,45,0.00,,,0.00,,2013-03-15 03:02:00,
2013-03-14 23:12:00,42.0,22.0,30.14,West,260,1.0,2.0,45,0.00,,,0.00,,2013-03-15 03:12:00,
2013-03-14 23:22:00,41.0,22.0,30.14,West,266,1.0,2.0,46,0.00,,,0.00,,2013-03-15 03:22:00,
2013-03-14 23:33:00,40.0,23.0,30.14,WSW,242,2.0,3.0,50,0.00,,,0.00,,2013-03-15 03:33:00,
2013-03-14 23:43:00,40.0,23.0,30.14,WSW,242,2.0,3.0,50,0.00,,,0.00,,2013-03-15 03:43:00,
2013-03-14 23:53:00,41.0,21.0,30.14,West,265,1.0,3.0,45,0.00,,,0.00,,2013-03-15 03:53:00,